owner,sensor,date,latitude,longitude,vertical_datum,wind_speed,wind_to_direction,wind_speed_of_gust,qcFlag 
WAVCIS,ioos:station:WAVCIS:CSI16:1,2011-08-01T00:00:00Z,29.4012,-89.0355,10.0,0.507,75.0,,'11111222,11111222,99999999' 
WAVCIS,ioos:station:WAVCIS:CSI16:1,2011-08-01T01:00:00Z,29.4012,-89.0355,10.0,1.538,74.0,,'11111222,11111222,99999999' 
WAVCIS,ioos:station:WAVCIS:CSI16:1,2011-08-01T02:00:00Z,29.4012,-89.0355,10.0,1.93,74.0,,'11111222,11111222,99999999' 
WAVCIS,ioos:station:WAVCIS:CSI16:1,2011-08-01T03:00:00Z,29.4012,-89.0355,10.0,3.892,73.0,,'11111222,11111222,99999999' 
WAVCIS,ioos:station:WAVCIS:CSI16:1,2011-08-01T04:00:00Z,29.4012,-89.0355,10.0,3.829,73.0,,'11111222,11111222,99999999' 
WAVCIS,ioos:station:WAVCIS:CSI16:1,2011-08-01T05:00:00Z,29.4012,-89.0355,10.0,2.553,73.0,,'11111222,11111222,99999999' 
WAVCIS,ioos:station:WAVCIS:CSI16:1,2011-08-01T06:00:00Z,29.4012,-89.0355,10.0,2.148,73.0,,'11111222,11111222,99999999' 
WAVCIS,ioos:station:WAVCIS:CSI16:1,2011-08-01T07:00:00Z,29.4012,-89.0355,10.0,2.901,73.0,,'11111222,11111222,99999999' 
WAVCIS,ioos:station:WAVCIS:CSI16:1,2011-08-01T08:00:00Z,29.4012,-89.0355,10.0,3.047,73.0,,'11111222,11111222,99999999' 
WAVCIS,ioos:station:WAVCIS:CSI16:1,2011-08-01T09:00:00Z,29.4012,-89.0355,10.0,3.861,73.0,,'11111222,11111222,99999999' 
WAVCIS,ioos:station:WAVCIS:CSI16:1,2011-08-01T10:00:00Z,29.4012,-89.0355,10.0,3.44,73.0,,'11111222,11111222,99999999' 
WAVCIS,ioos:station:WAVCIS:CSI16:1,2011-08-01T11:00:00Z,29.4012,-89.0355,10.0,4.425,73.0,,'11111222,11111222,99999999' 
WAVCIS,ioos:station:WAVCIS:CSI16:1,2011-08-01T12:00:00Z,29.4012,-89.0355,10.0,4.004,73.0,,'11111222,11111222,99999999' 
WAVCIS,ioos:station:WAVCIS:CSI16:1,2011-08-01T13:00:00Z,29.4012,-89.0355,10.0,3.481,73.0,,'11111222,11111222,99999999' 
WAVCIS,ioos:station:WAVCIS:CSI16:1,2011-08-01T14:00:00Z,29.4012,-89.0355,10.0,2.858,74.0,,'11111222,11111222,99999999' 
WAVCIS,ioos:station:WAVCIS:CSI16:1,2011-08-01T15:00:00Z,29.4012,-89.0355,10.0,3.044,74.0,,'11111222,11111222,99999999' 
WAVCIS,ioos:station:WAVCIS:CSI16:1,2011-08-01T16:00:00Z,29.4012,-89.0355,10.0,3.579,74.0,,'11111222,11111222,99999999' 
WAVCIS,ioos:station:WAVCIS:CSI16:1,2011-08-01T17:00:00Z,29.4012,-89.0355,10.0,3.128,74.0,,'11111222,11111222,99999999' 
WAVCIS,ioos:station:WAVCIS:CSI16:1,2011-08-01T18:00:00Z,29.4012,-89.0355,10.0,2.369,75.0,,'11111222,11111222,99999999' 
WAVCIS,ioos:station:WAVCIS:CSI16:1,2011-08-01T19:00:00Z,29.4012,-89.0355,10.0,2.229,75.0,,'11111222,11111222,99999999' 
WAVCIS,ioos:station:WAVCIS:CSI16:1,2011-08-01T20:00:00Z,29.4012,-89.0355,10.0,1.798,75.0,,'11111222,11111222,99999999' 
WAVCIS,ioos:station:WAVCIS:CSI16:1,2011-08-01T21:00:00Z,29.4012,-89.0355,10.0,2.176,74.0,,'11111222,11111222,99999999' 
WAVCIS,ioos:station:WAVCIS:CSI16:1,2011-08-01T22:00:00Z,29.4012,-89.0355,10.0,2.793,74.0,,'11111222,11111222,99999999' 
WAVCIS,ioos:station:WAVCIS:CSI16:1,2011-08-01T23:00:00Z,29.4012,-89.0355,10.0,1.859,74.0,,'11111222,11111222,99999999' 
WAVCIS,ioos:station:WAVCIS:CSI16:1,2011-08-02T00:00:00Z,29.4012,-89.0355,10.0,6.088,74.0,,'11111222,11111222,99999999' 
WAVCIS,ioos:station:WAVCIS:CSI16:1,2011-08-02T01:00:00Z,29.4012,-89.0355,10.0,6.016,73.0,,'11111222,11111222,99999999' 
WAVCIS,ioos:station:WAVCIS:CSI16:1,2011-08-02T02:00:00Z,29.4012,-89.0355,10.0,3.832,73.0,,'11111222,11111222,99999999' 
WAVCIS,ioos:station:WAVCIS:CSI16:1,2011-08-02T03:00:00Z,29.4012,-89.0355,10.0,3.839,73.0,,'11111222,11111222,99999999' 
WAVCIS,ioos:station:WAVCIS:CSI16:1,2011-08-02T04:00:00Z,29.4012,-89.0355,10.0,3.251,73.0,,'11111222,11111222,99999999' 
WAVCIS,ioos:station:WAVCIS:CSI16:1,2011-08-02T05:00:00Z,29.4012,-89.0355,10.0,0.59,73.0,,'11111222,11111222,99999999' 
WAVCIS,ioos:station:WAVCIS:CSI16:1,2011-08-02T06:00:00Z,29.4012,-89.0355,10.0,3.087,73.0,,'11111222,11111222,99999999' 
WAVCIS,ioos:station:WAVCIS:CSI16:1,2011-08-02T07:00:00Z,29.4012,-89.0355,10.0,4.522,73.0,,'11111222,11111222,99999999' 
WAVCIS,ioos:station:WAVCIS:CSI16:1,2011-08-02T08:00:00Z,29.4012,-89.0355,10.0,4.981,73.0,,'11111222,11111222,99999999' 
WAVCIS,ioos:station:WAVCIS:CSI16:1,2011-08-02T09:00:00Z,29.4012,-89.0355,10.0,5.341,73.0,,'11111222,11111222,99999999' 
WAVCIS,ioos:station:WAVCIS:CSI16:1,2011-08-02T10:00:00Z,29.4012,-89.0355,10.0,5.762,73.0,,'11111222,11111222,99999999' 
WAVCIS,ioos:station:WAVCIS:CSI16:1,2011-08-02T11:00:00Z,29.4012,-89.0355,10.0,5.687,73.0,,'11111222,11111222,99999999' 
WAVCIS,ioos:station:WAVCIS:CSI16:1,2011-08-02T12:00:00Z,29.4012,-89.0355,10.0,4.522,73.0,,'11111222,11111222,99999999' 
WAVCIS,ioos:station:WAVCIS:CSI16:1,2011-08-02T13:00:00Z,29.4012,-89.0355,10.0,4.917,73.0,,'11111222,11111222,99999999' 
WAVCIS,ioos:station:WAVCIS:CSI16:1,2011-08-02T14:00:00Z,29.4012,-89.0355,10.0,7.04,73.0,,'11111222,11111222,99999999' 
WAVCIS,ioos:station:WAVCIS:CSI16:1,2011-08-02T15:00:00Z,29.4012,-89.0355,10.0,5.398,74.0,,'11111222,11111222,99999999' 
WAVCIS,ioos:station:WAVCIS:CSI16:1,2011-08-02T16:00:00Z,29.4012,-89.0355,10.0,4.58,74.0,,'11111222,11111222,99999999' 
WAVCIS,ioos:station:WAVCIS:CSI16:1,2011-08-02T17:00:00Z,29.4012,-89.0355,10.0,1.857,74.0,,'11111222,11111222,99999999' 
WAVCIS,ioos:station:WAVCIS:CSI16:1,2011-08-02T18:00:00Z,29.4012,-89.0355,10.0,1.017,75.0,,'11111222,11111222,99999999' 
WAVCIS,ioos:station:WAVCIS:CSI16:1,2011-08-02T19:00:00Z,29.4012,-89.0355,10.0,1.208,75.0,,'11111222,11111222,99999999' 
WAVCIS,ioos:station:WAVCIS:CSI16:1,2011-08-02T20:00:00Z,29.4012,-89.0355,10.0,2.575,74.0,,'11111222,11111222,99999999' 
WAVCIS,ioos:station:WAVCIS:CSI16:1,2011-08-02T21:00:00Z,29.4012,-89.0355,10.0,2.014,74.0,,'11111222,11111222,99999999' 
WAVCIS,ioos:station:WAVCIS:CSI16:1,2011-08-02T22:00:00Z,29.4012,-89.0355,10.0,2.723,74.0,,'11111222,11111222,99999999' 
WAVCIS,ioos:station:WAVCIS:CSI16:1,2011-08-02T23:00:00Z,29.4012,-89.0355,10.0,4.058,74.0,,'11111222,11111222,99999999' 
WAVCIS,ioos:station:WAVCIS:CSI16:1,2011-08-03T00:00:00Z,29.4012,-89.0355,10.0,5.024,74.0,,'11111222,11111222,99999999' 
WAVCIS,ioos:station:WAVCIS:CSI16:1,2011-08-03T01:00:00Z,29.4012,-89.0355,10.0,5.545,73.0,,'11111222,11111222,99999999' 
WAVCIS,ioos:station:WAVCIS:CSI16:1,2011-08-03T02:00:00Z,29.4012,-89.0355,10.0,5.657,73.0,,'11111222,11111222,99999999' 
WAVCIS,ioos:station:WAVCIS:CSI16:1,2011-08-03T03:00:00Z,29.4012,-89.0355,10.0,5.913,73.0,,'11111222,11111222,99999999' 
WAVCIS,ioos:station:WAVCIS:CSI16:1,2011-08-03T04:00:00Z,29.4012,-89.0355,10.0,5.859,73.0,,'11111222,11111222,99999999' 
WAVCIS,ioos:station:WAVCIS:CSI16:1,2011-08-03T05:00:00Z,29.4012,-89.0355,10.0,6.969,73.0,,'11111222,11111222,99999999' 
WAVCIS,ioos:station:WAVCIS:CSI16:1,2011-08-03T06:00:00Z,29.4012,-89.0355,10.0,7.27,73.0,,'11111222,11111222,99999999' 
WAVCIS,ioos:station:WAVCIS:CSI16:1,2011-08-03T07:00:00Z,29.4012,-89.0355,10.0,6.635,73.0,,'11111222,11111222,99999999' 
WAVCIS,ioos:station:WAVCIS:CSI16:1,2011-08-03T08:00:00Z,29.4012,-89.0355,10.0,5.336,73.0,,'11111222,11111222,99999999' 
WAVCIS,ioos:station:WAVCIS:CSI16:1,2011-08-03T09:00:00Z,29.4012,-89.0355,10.0,4.156,73.0,,'11111222,11111222,99999999' 
WAVCIS,ioos:station:WAVCIS:CSI16:1,2011-08-03T10:00:00Z,29.4012,-89.0355,10.0,5.696,73.0,,'11111222,11111222,99999999' 
WAVCIS,ioos:station:WAVCIS:CSI16:1,2011-08-03T11:00:00Z,29.4012,-89.0355,10.0,4.873,73.0,,'11111222,11111222,99999999' 
WAVCIS,ioos:station:WAVCIS:CSI16:1,2011-08-03T12:00:00Z,29.4012,-89.0355,10.0,5.665,73.0,,'11111222,11111222,99999999' 
WAVCIS,ioos:station:WAVCIS:CSI16:1,2011-08-03T13:00:00Z,29.4012,-89.0355,10.0,4.778,73.0,,'11111222,11111222,99999999' 
WAVCIS,ioos:station:WAVCIS:CSI16:1,2011-08-03T14:00:00Z,29.4012,-89.0355,10.0,5.595,74.0,,'11111222,11111222,99999999' 
WAVCIS,ioos:station:WAVCIS:CSI16:1,2011-08-03T15:00:00Z,29.4012,-89.0355,10.0,4.239,74.0,,'11111222,11111222,99999999' 
WAVCIS,ioos:station:WAVCIS:CSI16:1,2011-08-03T16:00:00Z,29.4012,-89.0355,10.0,5.012,73.0,,'11111222,11111222,99999999' 
WAVCIS,ioos:station:WAVCIS:CSI16:1,2011-08-03T17:00:00Z,29.4012,-89.0355,10.0,4.187,73.0,,'11111222,11111222,99999999' 
WAVCIS,ioos:station:WAVCIS:CSI16:1,2011-08-03T18:00:00Z,29.4012,-89.0355,10.0,1.305,74.0,,'11111222,11111222,99999999' 
WAVCIS,ioos:station:WAVCIS:CSI16:1,2011-08-03T19:00:00Z,29.4012,-89.0355,10.0,1.549,74.0,,'11111222,11111222,99999999' 
WAVCIS,ioos:station:WAVCIS:CSI16:1,2011-08-03T20:00:00Z,29.4012,-89.0355,10.0,1.737,74.0,,'11111222,11111222,99999999' 
WAVCIS,ioos:station:WAVCIS:CSI16:1,2011-08-03T21:00:00Z,29.4012,-89.0355,10.0,2.802,74.0,,'11111222,11111222,99999999' 
WAVCIS,ioos:station:WAVCIS:CSI16:1,2011-08-03T22:00:00Z,29.4012,-89.0355,10.0,2.974,74.0,,'11111222,11111222,99999999' 
WAVCIS,ioos:station:WAVCIS:CSI16:1,2011-08-03T23:00:00Z,29.4012,-89.0355,10.0,2.997,74.0,,'11111222,11111222,99999999' 
WAVCIS,ioos:station:WAVCIS:CSI16:1,2011-08-04T00:00:00Z,29.4012,-89.0355,10.0,5.107,74.0,,'11111222,11111222,99999999' 
WAVCIS,ioos:station:WAVCIS:CSI16:1,2011-08-04T01:00:00Z,29.4012,-89.0355,10.0,5.008,73.0,,'11111222,11111222,99999999' 
WAVCIS,ioos:station:WAVCIS:CSI16:1,2011-08-04T02:00:00Z,29.4012,-89.0355,10.0,5.128,73.0,,'11111222,11111222,99999999' 
WAVCIS,ioos:station:WAVCIS:CSI16:1,2011-08-04T03:00:00Z,29.4012,-89.0355,10.0,4.842,73.0,,'11111222,11111222,99999999' 
WAVCIS,ioos:station:WAVCIS:CSI16:1,2011-08-04T04:00:00Z,29.4012,-89.0355,10.0,5.085,73.0,,'11111222,11111222,99999999' 
WAVCIS,ioos:station:WAVCIS:CSI16:1,2011-08-04T05:00:00Z,29.4012,-89.0355,10.0,5.18,73.0,,'11111222,11111222,99999999' 
WAVCIS,ioos:station:WAVCIS:CSI16:1,2011-08-04T06:00:00Z,29.4012,-89.0355,10.0,4.963,73.0,,'11111222,11111222,99999999' 
WAVCIS,ioos:station:WAVCIS:CSI16:1,2011-08-04T07:00:00Z,29.4012,-89.0355,10.0,5.099,73.0,,'11111222,11111222,99999999' 
WAVCIS,ioos:station:WAVCIS:CSI16:1,2011-08-04T08:00:00Z,29.4012,-89.0355,10.0,5.904,73.0,,'11111222,11111222,99999999' 
WAVCIS,ioos:station:WAVCIS:CSI16:1,2011-08-04T09:00:00Z,29.4012,-89.0355,10.0,4.603,73.0,,'11111222,11111222,99999999' 
WAVCIS,ioos:station:WAVCIS:CSI16:1,2011-08-04T10:00:00Z,29.4012,-89.0355,10.0,3.573,73.0,,'11111222,11111222,99999999' 
WAVCIS,ioos:station:WAVCIS:CSI16:1,2011-08-04T11:00:00Z,29.4012,-89.0355,10.0,3.698,73.0,,'11111222,11111222,99999999' 
WAVCIS,ioos:station:WAVCIS:CSI16:1,2011-08-04T12:00:00Z,29.4012,-89.0355,10.0,4.078,73.0,,'11111222,11111222,99999999' 
WAVCIS,ioos:station:WAVCIS:CSI16:1,2011-08-04T13:00:00Z,29.4012,-89.0355,10.0,5.569,74.0,,'11111222,11111222,99999999' 
WAVCIS,ioos:station:WAVCIS:CSI16:1,2011-08-04T14:00:00Z,29.4012,-89.0355,10.0,4.768,74.0,,'11111222,11111222,99999999' 
WAVCIS,ioos:station:WAVCIS:CSI16:1,2011-08-04T15:00:00Z,29.4012,-89.0355,10.0,3.119,74.0,,'11111222,11111222,99999999' 
WAVCIS,ioos:station:WAVCIS:CSI16:1,2011-08-04T16:00:00Z,29.4012,-89.0355,10.0,3.758,74.0,,'11111222,11111222,99999999' 
WAVCIS,ioos:station:WAVCIS:CSI16:1,2011-08-04T17:00:00Z,29.4012,-89.0355,10.0,4.43,74.0,,'11111222,11111222,99999999' 
WAVCIS,ioos:station:WAVCIS:CSI16:1,2011-08-04T18:00:00Z,29.4012,-89.0355,10.0,3.047,75.0,,'11111222,11111222,99999999' 
WAVCIS,ioos:station:WAVCIS:CSI16:1,2011-08-04T19:00:00Z,29.4012,-89.0355,10.0,2.66,75.0,,'11111222,11111222,99999999' 
WAVCIS,ioos:station:WAVCIS:CSI16:1,2011-08-04T20:00:00Z,29.4012,-89.0355,10.0,1.921,75.0,,'11111222,11111222,99999999' 
WAVCIS,ioos:station:WAVCIS:CSI16:1,2011-08-04T21:00:00Z,29.4012,-89.0355,10.0,0.612,75.0,,'11111222,11111222,99999999' 
WAVCIS,ioos:station:WAVCIS:CSI16:1,2011-08-04T22:00:00Z,29.4012,-89.0355,10.0,1.233,75.0,,'11111222,11111222,99999999' 
WAVCIS,ioos:station:WAVCIS:CSI16:1,2011-08-04T23:00:00Z,29.4012,-89.0355,10.0,0.64,75.0,,'11111222,11111222,99999999' 
WAVCIS,ioos:station:WAVCIS:CSI16:1,2011-08-05T00:00:00Z,29.4012,-89.0355,10.0,1.804,75.0,,'11111222,11111222,99999999' 
WAVCIS,ioos:station:WAVCIS:CSI16:1,2011-08-05T01:00:00Z,29.4012,-89.0355,10.0,0.794,74.0,,'11111222,11111222,99999999' 
WAVCIS,ioos:station:WAVCIS:CSI16:1,2011-08-05T02:00:00Z,29.4012,-89.0355,10.0,0.525,74.0,,'11111222,11111222,99999999' 
WAVCIS,ioos:station:WAVCIS:CSI16:1,2011-08-05T03:00:00Z,29.4012,-89.0355,10.0,0.536,74.0,,'11111222,11111222,99999999' 
WAVCIS,ioos:station:WAVCIS:CSI16:1,2011-08-05T04:00:00Z,29.4012,-89.0355,10.0,0.427,74.0,,'11111222,11111222,99999999' 
WAVCIS,ioos:station:WAVCIS:CSI16:1,2011-08-05T05:00:00Z,29.4012,-89.0355,10.0,0.582,74.0,,'11111222,11111222,99999999' 
WAVCIS,ioos:station:WAVCIS:CSI16:1,2011-08-05T06:00:00Z,29.4012,-89.0355,10.0,0.648,74.0,,'11111222,11111222,99999999' 
WAVCIS,ioos:station:WAVCIS:CSI16:1,2011-08-05T07:00:00Z,29.4012,-89.0355,10.0,3.071,73.0,,'11111222,11111222,99999999' 
WAVCIS,ioos:station:WAVCIS:CSI16:1,2011-08-05T08:00:00Z,29.4012,-89.0355,10.0,5.752,72.0,,'11111222,11111222,99999999' 
WAVCIS,ioos:station:WAVCIS:CSI16:1,2011-08-05T09:00:00Z,29.4012,-89.0355,10.0,3.566,73.0,,'11111222,11111222,99999999' 
WAVCIS,ioos:station:WAVCIS:CSI16:1,2011-08-05T10:00:00Z,29.4012,-89.0355,10.0,7.35,73.0,,'11111222,11111222,99999999' 
WAVCIS,ioos:station:WAVCIS:CSI16:1,2011-08-05T11:00:00Z,29.4012,-89.0355,10.0,3.724,73.0,,'11111222,11111222,99999999' 
WAVCIS,ioos:station:WAVCIS:CSI16:1,2011-08-05T12:00:00Z,29.4012,-89.0355,10.0,2.944,73.0,,'11111222,11111222,99999999' 
WAVCIS,ioos:station:WAVCIS:CSI16:1,2011-08-05T13:00:00Z,29.4012,-89.0355,10.0,3.38,74.0,,'11111222,11111222,99999999' 
WAVCIS,ioos:station:WAVCIS:CSI16:1,2011-08-05T14:00:00Z,29.4012,-89.0355,10.0,4.596,74.0,,'11111222,11111222,99999999' 
WAVCIS,ioos:station:WAVCIS:CSI16:1,2011-08-05T15:00:00Z,29.4012,-89.0355,10.0,4.194,74.0,,'11111222,11111222,99999999' 
WAVCIS,ioos:station:WAVCIS:CSI16:1,2011-08-05T16:00:00Z,29.4012,-89.0355,10.0,4.615,74.0,,'11111222,11111222,99999999' 
WAVCIS,ioos:station:WAVCIS:CSI16:1,2011-08-05T17:00:00Z,29.4012,-89.0355,10.0,4.562,74.0,,'11111222,11111222,99999999' 
WAVCIS,ioos:station:WAVCIS:CSI16:1,2011-08-05T18:00:00Z,29.4012,-89.0355,10.0,4.247,75.0,,'11111222,11111222,99999999' 
WAVCIS,ioos:station:WAVCIS:CSI16:1,2011-08-05T19:00:00Z,29.4012,-89.0355,10.0,1.612,74.0,,'11111222,11111222,99999999' 
WAVCIS,ioos:station:WAVCIS:CSI16:1,2011-08-05T20:00:00Z,29.4012,-89.0355,10.0,5.399,73.0,,'11111222,11111222,99999999' 
WAVCIS,ioos:station:WAVCIS:CSI16:1,2011-08-05T21:00:00Z,29.4012,-89.0355,10.0,3.632,73.0,,'11111222,11111222,99999999' 
WAVCIS,ioos:station:WAVCIS:CSI16:1,2011-08-05T22:00:00Z,29.4012,-89.0355,10.0,4.544,73.0,,'11111222,11111222,99999999' 
WAVCIS,ioos:station:WAVCIS:CSI16:1,2011-08-05T23:00:00Z,29.4012,-89.0355,10.0,5.142,73.0,,'11111222,11111222,99999999' 
WAVCIS,ioos:station:WAVCIS:CSI16:1,2011-08-06T00:00:00Z,29.4012,-89.0355,10.0,4.868,73.0,,'11111222,11111222,99999999' 
WAVCIS,ioos:station:WAVCIS:CSI16:1,2011-08-06T01:00:00Z,29.4012,-89.0355,10.0,5.19,73.0,,'11111222,11111222,99999999' 
WAVCIS,ioos:station:WAVCIS:CSI16:1,2011-08-06T02:00:00Z,29.4012,-89.0355,10.0,5.121,73.0,,'11111222,11111222,99999999' 
WAVCIS,ioos:station:WAVCIS:CSI16:1,2011-08-06T03:00:00Z,29.4012,-89.0355,10.0,2.42,73.0,,'11111222,11111222,99999999' 
WAVCIS,ioos:station:WAVCIS:CSI16:1,2011-08-06T04:00:00Z,29.4012,-89.0355,10.0,2.78,73.0,,'11111222,11111222,99999999' 
WAVCIS,ioos:station:WAVCIS:CSI16:1,2011-08-06T05:00:00Z,29.4012,-89.0355,10.0,3.412,73.0,,'11111222,11111222,99999999' 
WAVCIS,ioos:station:WAVCIS:CSI16:1,2011-08-06T06:00:00Z,29.4012,-89.0355,10.0,5.059,73.0,,'11111222,11111222,99999999' 
WAVCIS,ioos:station:WAVCIS:CSI16:1,2011-08-06T07:00:00Z,29.4012,-89.0355,10.0,6.51,73.0,,'11111222,11111222,99999999' 
WAVCIS,ioos:station:WAVCIS:CSI16:1,2011-08-06T08:00:00Z,29.4012,-89.0355,10.0,4.922,73.0,,'11111222,11111222,99999999' 
WAVCIS,ioos:station:WAVCIS:CSI16:1,2011-08-06T09:00:00Z,29.4012,-89.0355,10.0,3.867,73.0,,'11111222,11111222,99999999' 
WAVCIS,ioos:station:WAVCIS:CSI16:1,2011-08-06T10:00:00Z,29.4012,-89.0355,10.0,4.219,73.0,,'11111222,11111222,99999999' 
WAVCIS,ioos:station:WAVCIS:CSI16:1,2011-08-06T11:00:00Z,29.4012,-89.0355,10.0,3.804,73.0,,'11111222,11111222,99999999' 
WAVCIS,ioos:station:WAVCIS:CSI16:1,2011-08-06T12:00:00Z,29.4012,-89.0355,10.0,3.122,73.0,,'11111222,11111222,99999999' 
WAVCIS,ioos:station:WAVCIS:CSI16:1,2011-08-06T13:00:00Z,29.4012,-89.0355,10.0,0.945,74.0,,'11111222,11111222,99999999' 
WAVCIS,ioos:station:WAVCIS:CSI16:1,2011-08-06T14:00:00Z,29.4012,-89.0355,10.0,1.222,74.0,,'11111222,11111222,99999999' 
WAVCIS,ioos:station:WAVCIS:CSI16:1,2011-08-06T15:00:00Z,29.4012,-89.0355,10.0,0.739,75.0,,'11111222,11111222,99999999' 
WAVCIS,ioos:station:WAVCIS:CSI16:1,2011-08-06T16:00:00Z,29.4012,-89.0355,10.0,1.704,74.0,,'11111222,11111222,99999999' 
WAVCIS,ioos:station:WAVCIS:CSI16:1,2011-08-06T17:00:00Z,29.4012,-89.0355,10.0,0.664,75.0,,'11111222,11111222,99999999' 
WAVCIS,ioos:station:WAVCIS:CSI16:1,2011-08-06T18:00:00Z,29.4012,-89.0355,10.0,0.715,75.0,,'11111222,11111222,99999999' 
WAVCIS,ioos:station:WAVCIS:CSI16:1,2011-08-06T19:00:00Z,29.4012,-89.0355,10.0,0.727,75.0,,'11111222,11111222,99999999' 
WAVCIS,ioos:station:WAVCIS:CSI16:1,2011-08-06T20:00:00Z,29.4012,-89.0355,10.0,1.036,75.0,,'11111222,11111222,99999999' 
WAVCIS,ioos:station:WAVCIS:CSI16:1,2011-08-06T21:00:00Z,29.4012,-89.0355,10.0,0.702,75.0,,'11111222,11111222,99999999' 
WAVCIS,ioos:station:WAVCIS:CSI16:1,2011-08-06T22:00:00Z,29.4012,-89.0355,10.0,1.528,75.0,,'11111222,11111222,99999999' 
WAVCIS,ioos:station:WAVCIS:CSI16:1,2011-08-06T23:00:00Z,29.4012,-89.0355,10.0,1.326,75.0,,'11111222,11111222,99999999' 
WAVCIS,ioos:station:WAVCIS:CSI16:1,2011-08-07T00:00:00Z,29.4012,-89.0355,10.0,2.039,74.0,,'11111222,11111222,99999999' 
WAVCIS,ioos:station:WAVCIS:CSI16:1,2011-08-07T01:00:00Z,29.4012,-89.0355,10.0,2.192,74.0,,'11111222,11111222,99999999' 
WAVCIS,ioos:station:WAVCIS:CSI16:1,2011-08-07T02:00:00Z,29.4012,-89.0355,10.0,3.027,74.0,,'11111222,11111222,99999999' 
WAVCIS,ioos:station:WAVCIS:CSI16:1,2011-08-07T03:00:00Z,29.4012,-89.0355,10.0,3.034,74.0,,'11111222,11111222,99999999' 
WAVCIS,ioos:station:WAVCIS:CSI16:1,2011-08-07T04:00:00Z,29.4012,-89.0355,10.0,3.607,73.0,,'11111222,11111222,99999999' 
WAVCIS,ioos:station:WAVCIS:CSI16:1,2011-08-07T05:00:00Z,29.4012,-89.0355,10.0,4.293,73.0,,'11111222,11111222,99999999' 
WAVCIS,ioos:station:WAVCIS:CSI16:1,2011-08-07T06:00:00Z,29.4012,-89.0355,10.0,4.346,73.0,,'11111222,11111222,99999999' 
WAVCIS,ioos:station:WAVCIS:CSI16:1,2011-08-07T07:00:00Z,29.4012,-89.0355,10.0,5.235,73.0,,'11111222,11111222,99999999' 
WAVCIS,ioos:station:WAVCIS:CSI16:1,2011-08-07T08:00:00Z,29.4012,-89.0355,10.0,5.776,73.0,,'11111222,11111222,99999999' 
WAVCIS,ioos:station:WAVCIS:CSI16:1,2011-08-07T09:00:00Z,29.4012,-89.0355,10.0,4.789,73.0,,'11111222,11111222,99999999' 
WAVCIS,ioos:station:WAVCIS:CSI16:1,2011-08-07T10:00:00Z,29.4012,-89.0355,10.0,3.982,73.0,,'11111222,11111222,99999999' 
WAVCIS,ioos:station:WAVCIS:CSI16:1,2011-08-07T11:00:00Z,29.4012,-89.0355,10.0,4.987,73.0,,'11111222,11111222,99999999' 
WAVCIS,ioos:station:WAVCIS:CSI16:1,2011-08-07T12:00:00Z,29.4012,-89.0355,10.0,4.747,73.0,,'11111222,11111222,99999999' 
WAVCIS,ioos:station:WAVCIS:CSI16:1,2011-08-07T13:00:00Z,29.4012,-89.0355,10.0,4.793,74.0,,'11111222,11111222,99999999' 
WAVCIS,ioos:station:WAVCIS:CSI16:1,2011-08-07T14:00:00Z,29.4012,-89.0355,10.0,5.573,74.0,,'11111222,11111222,99999999' 
WAVCIS,ioos:station:WAVCIS:CSI16:1,2011-08-07T15:00:00Z,29.4012,-89.0355,10.0,5.277,74.0,,'11111222,11111222,99999999' 
WAVCIS,ioos:station:WAVCIS:CSI16:1,2011-08-07T16:00:00Z,29.4012,-89.0355,10.0,4.234,74.0,,'11111222,11111222,99999999' 
WAVCIS,ioos:station:WAVCIS:CSI16:1,2011-08-07T17:00:00Z,29.4012,-89.0355,10.0,2.799,74.0,,'11111222,11111222,99999999' 
WAVCIS,ioos:station:WAVCIS:CSI16:1,2011-08-07T18:00:00Z,29.4012,-89.0355,10.0,2.556,75.0,,'11111222,11111222,99999999' 
WAVCIS,ioos:station:WAVCIS:CSI16:1,2011-08-07T19:00:00Z,29.4012,-89.0355,10.0,1.777,75.0,,'11111222,11111222,99999999' 
WAVCIS,ioos:station:WAVCIS:CSI16:1,2011-08-07T20:00:00Z,29.4012,-89.0355,10.0,0.895,75.0,,'11111222,11111222,99999999' 
WAVCIS,ioos:station:WAVCIS:CSI16:1,2011-08-07T21:00:00Z,29.4012,-89.0355,10.0,0.961,75.0,,'11111222,11111222,99999999' 
WAVCIS,ioos:station:WAVCIS:CSI16:1,2011-08-07T22:00:00Z,29.4012,-89.0355,10.0,2.121,75.0,,'11111222,11111222,99999999' 
WAVCIS,ioos:station:WAVCIS:CSI16:1,2011-08-07T23:00:00Z,29.4012,-89.0355,10.0,6.209,74.0,,'11111222,11111222,99999999' 
WAVCIS,ioos:station:WAVCIS:CSI16:1,2011-08-08T00:00:00Z,29.4012,-89.0355,10.0,4.374,74.0,,'11111222,11111222,99999999' 
WAVCIS,ioos:station:WAVCIS:CSI16:1,2011-08-08T01:00:00Z,29.4012,-89.0355,10.0,4.319,73.0,,'11111222,11111222,99999999' 
WAVCIS,ioos:station:WAVCIS:CSI16:1,2011-08-08T02:00:00Z,29.4012,-89.0355,10.0,5.16,73.0,,'11111222,11111222,99999999' 
WAVCIS,ioos:station:WAVCIS:CSI16:1,2011-08-08T03:00:00Z,29.4012,-89.0355,10.0,4.795,73.0,,'11111222,11111222,99999999' 
WAVCIS,ioos:station:WAVCIS:CSI16:1,2011-08-08T04:00:00Z,29.4012,-89.0355,10.0,4.782,73.0,,'11111222,11111222,99999999' 
WAVCIS,ioos:station:WAVCIS:CSI16:1,2011-08-08T05:00:00Z,29.4012,-89.0355,10.0,4.598,73.0,,'11111222,11111222,99999999' 
WAVCIS,ioos:station:WAVCIS:CSI16:1,2011-08-08T06:00:00Z,29.4012,-89.0355,10.0,5.232,73.0,,'11111222,11111222,99999999' 
WAVCIS,ioos:station:WAVCIS:CSI16:1,2011-08-08T07:00:00Z,29.4012,-89.0355,10.0,7.28,73.0,,'11111222,11111222,99999999' 
WAVCIS,ioos:station:WAVCIS:CSI16:1,2011-08-08T08:00:00Z,29.4012,-89.0355,10.0,6.274,73.0,,'11111222,11111222,99999999' 
WAVCIS,ioos:station:WAVCIS:CSI16:1,2011-08-08T09:00:00Z,29.4012,-89.0355,10.0,6.527,73.0,,'11111222,11111222,99999999' 
WAVCIS,ioos:station:WAVCIS:CSI16:1,2011-08-08T10:00:00Z,29.4012,-89.0355,10.0,8.13,73.0,,'11111222,11111222,99999999' 
WAVCIS,ioos:station:WAVCIS:CSI16:1,2011-08-08T11:00:00Z,29.4012,-89.0355,10.0,5.048,73.0,,'11111222,11111222,99999999' 
WAVCIS,ioos:station:WAVCIS:CSI16:1,2011-08-08T12:00:00Z,29.4012,-89.0355,10.0,4.943,71.0,,'11111222,11111222,99999999' 
WAVCIS,ioos:station:WAVCIS:CSI16:1,2011-08-08T13:00:00Z,29.4012,-89.0355,10.0,4.416,72.0,,'11111222,11111222,99999999' 
WAVCIS,ioos:station:WAVCIS:CSI16:1,2011-08-08T14:00:00Z,29.4012,-89.0355,10.0,4.975,73.0,,'11111222,11111222,99999999' 
WAVCIS,ioos:station:WAVCIS:CSI16:1,2011-08-08T15:00:00Z,29.4012,-89.0355,10.0,8.23,72.0,,'11111222,11111222,99999999' 
WAVCIS,ioos:station:WAVCIS:CSI16:1,2011-08-08T16:00:00Z,29.4012,-89.0355,10.0,3.353,73.0,,'11111222,11111222,99999999' 
WAVCIS,ioos:station:WAVCIS:CSI16:1,2011-08-08T17:00:00Z,29.4012,-89.0355,10.0,3.3,70.0,,'11111222,11111222,99999999' 
WAVCIS,ioos:station:WAVCIS:CSI16:1,2011-08-08T18:00:00Z,29.4012,-89.0355,10.0,8.53,72.0,,'11111222,11111222,99999999' 
WAVCIS,ioos:station:WAVCIS:CSI16:1,2011-08-08T19:00:00Z,29.4012,-89.0355,10.0,4.867,72.0,,'11111222,11111222,99999999' 
WAVCIS,ioos:station:WAVCIS:CSI16:1,2011-08-08T20:00:00Z,29.4012,-89.0355,10.0,3.925,73.0,,'11111222,11111222,99999999' 
WAVCIS,ioos:station:WAVCIS:CSI16:1,2011-08-08T21:00:00Z,29.4012,-89.0355,10.0,3.744,73.0,,'11111222,11111222,99999999' 
WAVCIS,ioos:station:WAVCIS:CSI16:1,2011-08-08T22:00:00Z,29.4012,-89.0355,10.0,3.444,74.0,,'11111222,11111222,99999999' 
WAVCIS,ioos:station:WAVCIS:CSI16:1,2011-08-08T23:00:00Z,29.4012,-89.0355,10.0,6.2,74.0,,'11111222,11111222,99999999' 
WAVCIS,ioos:station:WAVCIS:CSI16:1,2011-08-09T00:00:00Z,29.4012,-89.0355,10.0,2.938,73.0,,'11111222,11111222,99999999' 
WAVCIS,ioos:station:WAVCIS:CSI16:1,2011-08-09T01:00:00Z,29.4012,-89.0355,10.0,3.364,73.0,,'11111222,11111222,99999999' 
WAVCIS,ioos:station:WAVCIS:CSI16:1,2011-08-09T02:00:00Z,29.4012,-89.0355,10.0,5.953,73.0,,'11111222,11111222,99999999' 
WAVCIS,ioos:station:WAVCIS:CSI16:1,2011-08-09T03:00:00Z,29.4012,-89.0355,10.0,7.5,73.0,,'11111222,11111222,99999999' 
WAVCIS,ioos:station:WAVCIS:CSI16:1,2011-08-09T04:00:00Z,29.4012,-89.0355,10.0,7.48,73.0,,'11111222,11111222,99999999' 
WAVCIS,ioos:station:WAVCIS:CSI16:1,2011-08-09T05:00:00Z,29.4012,-89.0355,10.0,6.129,73.0,,'11111222,11111222,99999999' 
WAVCIS,ioos:station:WAVCIS:CSI16:1,2011-08-09T06:00:00Z,29.4012,-89.0355,10.0,5.242,73.0,,'11111222,11111222,99999999' 